DateTimeUTC,F1_A11,F1_S11,BsB_S11,BsG_S11,BsR_S11,BbsB_S11,BbsG_S11,BbsR_S11,BaB_A11,BaG_A11,BaR_A11,Tu_S11,T_S11,Uu_S11,U_S11,P_S11,T1_A11
2021-08-08T08:00:00Z,00000200,20000000,,,,,,,0000.04,0000.23,0000.34,18.3,25.3,04.6,03.0,0666.1,31.0
2021-08-08T08:01:00Z,00000200,20000000,,,,,,,-000.03,-000.42,-000.38,18.3,25.3,04.6,03.0,0666.1,31.0
2021-08-08T08:02:00Z,00000200,20000000,,,,,,,-000.03,0000.53,0000.02,18.3,25.3,04.6,03.0,0666.1,31.0
2021-08-08T08:03:00Z,00000200,60000000,,,,,,,0000.56,-000.03,0000.66,18.3,25.3,04.6,03.0,0666.1,31.1
2021-08-08T08:04:00Z,00000200,40000000,0001.55,0001.90,0000.92,0000.58,0000.64,-000.05,0000.44,0000.24,-000.11,18.4,25.1,04.6,03.1,0667.1,31.0
2021-08-08T08:05:00Z,00000200,00000000,0002.35,0001.69,0001.01,0000.65,0000.31,0000.04,0000.18,0000.45,0000.48,18.5,25.0,04.6,03.1,0667.2,31.0
2021-08-08T08:06:00Z,00000200,00000000,0001.71,0001.42,0000.87,0000.55,0000.13,0000.42,0000.54,0000.34,0000.42,18.4,25.0,04.6,03.1,0667.2,31.0
2021-08-08T08:07:00Z,00000200,00000000,0002.47,0001.51,0000.75,-000.07,0000.40,0000.17,0000.47,0000.49,0000.20,18.4,25.0,04.6,03.1,0667.1,31.0
2021-08-08T08:08:00Z,00000200,00000000,0002.56,0001.85,0000.91,0000.55,0000.32,0000.44,0000.55,0000.50,0000.24,18.5,25.0,04.7,03.2,0667.2,31.0
2021-08-08T08:09:00Z,00000200,00000000,0002.29,0001.67,0001.01,0001.15,0000.14,0000.16,0000.45,0000.46,0000.61,18.5,25.0,04.7,03.2,0667.1,31.1
2021-08-08T08:10:00Z,00000200,00000000,0003.00,0001.89,0000.80,0000.31,0000.09,-000.01,0000.63,0000.52,0000.46,18.6,25.0,04.8,03.2,0667.1,31.1
2021-08-08T08:11:00Z,00000200,00000000,0002.50,0001.42,0001.13,0001.05,0000.02,0000.01,0000.48,0000.47,0000.43,18.6,25.0,04.8,03.2,0667.1,31.0
2021-08-08T08:12:00Z,00000200,00000000,0002.08,0001.56,0001.12,0000.50,0000.26,-000.03,0000.64,0000.57,0000.59,18.6,25.0,04.8,03.2,0667.1,31.0
2021-08-08T08:13:00Z,00000200,00000000,0002.49,0001.84,0000.76,0000.27,0000.36,0000.18,0000.21,0000.79,0000.24,18.6,25.0,04.8,03.2,0667.1,31.1
2021-08-08T08:14:00Z,00000200,00000000,0002.17,0001.80,0000.93,0000.69,0000.32,-000.05,0000.48,-000.08,-000.00,18.6,25.0,04.8,03.3,0667.2,31.0
2021-08-08T08:15:00Z,00000200,00000000,0003.29,0001.47,0001.14,0000.32,0000.12,0000.06,0000.40,0000.78,0000.82,18.5,25.0,04.9,03.3,0667.1,31.0
2021-08-08T08:16:00Z,00000200,00000000,0003.05,0001.25,0001.26,0000.43,0000.42,0000.00,0000.33,0000.35,-000.05,18.5,25.0,04.8,03.3,0667.2,31.0
2021-08-08T08:17:00Z,00000200,00000000,0002.16,0001.67,0000.99,0000.30,0000.15,0000.19,0000.79,0000.45,0000.92,18.5,25.0,04.9,03.3,0667.1,31.0
2021-08-08T08:18:00Z,00000200,00000000,0002.75,0001.54,0001.19,0000.78,0000.17,0000.02,0000.73,0000.47,0000.28,18.5,25.0,04.9,03.3,0667.2,31.0
2021-08-08T08:19:00Z,00000200,00000000,0003.58,0001.55,0001.24,0000.72,0000.43,0000.26,0000.15,0000.29,0000.33,18.5,25.0,04.9,03.3,0667.2,31.0
2021-08-08T08:20:00Z,00000200,00000000,0002.22,0001.96,0001.44,0000.75,0000.29,0000.51,0000.54,0000.20,0000.44,18.5,24.9,05.0,03.4,0667.2,31.0
2021-08-08T08:21:00Z,00000200,00000000,0002.71,0002.02,0001.24,0000.98,0000.06,0000.24,0000.32,0000.61,-000.02,18.5,24.9,05.0,03.3,0667.2,31.0
2021-08-08T08:22:00Z,00000200,00000000,0002.90,0001.88,0001.06,0000.04,0000.43,0000.03,0000.65,0000.59,0000.62,18.5,25.0,04.9,03.3,0667.1,31.0
2021-08-08T08:23:00Z,00000200,00000000,0001.90,0001.70,0000.87,0000.03,0000.27,0000.19,0000.16,0000.18,0000.39,18.5,25.0,05.0,03.4,0667.1,31.0
2021-08-08T08:24:00Z,00000200,00000000,0003.44,0001.88,0001.54,0000.82,0000.49,0000.23,0000.88,0000.79,0000.55,18.6,25.0,05.0,03.4,0667.2,31.1
2021-08-08T08:25:00Z,00000200,00000000,0001.85,0001.86,0001.11,0000.78,0000.08,0000.28,0000.85,0000.52,0000.50,18.7,25.1,05.0,03.4,0667.1,31.0
2021-08-08T08:26:00Z,00000200,00000000,0002.31,0001.74,0000.83,0000.10,0000.07,0000.34,0000.30,0000.59,0000.40,18.7,25.1,05.1,03.5,0667.1,31.1
2021-08-08T08:27:00Z,00000200,00000000,0003.32,0001.99,0001.27,0000.71,0000.47,0000.27,0000.30,0000.59,0000.38,18.8,25.1,05.1,03.5,0667.1,31.1
2021-08-08T08:28:00Z,00000200,00000000,0001.92,0001.56,0000.75,0000.81,0000.47,0000.04,0000.71,0000.47,0000.70,18.8,25.1,05.1,03.5,0667.1,31.1
2021-08-08T08:29:00Z,00000200,00000000,0003.40,0001.63,0000.94,0000.22,0000.33,0000.12,0000.42,0000.68,0000.35,18.8,25.1,05.1,03.4,0667.1,31.1
2021-08-08T08:30:00Z,00000200,00000000,0003.16,0001.76,0000.93,0000.40,0000.33,0000.35,0000.85,0000.15,0000.52,18.7,25.1,05.2,03.5,0667.1,31.1
2021-08-08T08:31:00Z,00000200,00000000,0003.60,0002.12,0000.91,0000.54,0000.34,0000.16,0000.38,0000.92,0000.64,18.7,25.1,05.2,03.6,0667.2,31.0
2021-08-08T08:32:00Z,00000200,00000000,0002.85,0001.98,0000.90,0001.36,0000.22,0000.25,0000.40,0000.39,0000.13,18.7,25.1,05.2,03.6,0667.2,31.0
2021-08-08T08:33:00Z,00000200,00000000,0002.07,0002.09,0000.86,0000.72,0000.45,-000.12,0000.99,0000.58,0000.58,18.7,25.1,05.3,03.6,0667.2,31.1
2021-08-08T08:34:00Z,00000200,00000000,0002.77,0001.73,0001.37,0000.31,0000.34,0000.41,0000.61,0000.60,0000.15,18.7,25.0,05.4,03.7,0667.1,31.0
2021-08-08T08:35:00Z,00000200,00000000,0003.22,0001.91,0001.11,0000.78,0000.31,-000.14,0000.40,0000.40,0000.58,18.7,25.0,05.4,03.6,0667.2,31.1
2021-08-08T08:36:00Z,00000200,00000000,0002.62,0001.74,0001.06,0000.49,0000.07,-000.00,0000.58,0000.43,0000.25,18.7,25.0,05.4,03.6,0667.2,31.0
2021-08-08T08:37:00Z,00000200,00000000,0002.28,0001.93,0001.46,0000.70,-000.00,0000.19,0000.09,0000.59,0000.33,18.7,25.0,05.4,03.7,0667.2,31.0
2021-08-08T08:38:00Z,00000200,00000000,0003.25,0001.82,0000.98,0000.82,0000.15,0000.09,0000.82,0000.34,0000.90,18.7,25.0,05.5,03.7,0667.2,31.1
2021-08-08T08:39:00Z,00000200,00000000,0003.49,0002.21,0001.35,0000.54,0000.31,0000.27,0000.84,0000.67,0000.46,18.7,25.0,05.5,03.8,0667.2,31.0
2021-08-08T08:40:00Z,00000200,00000000,0002.67,0002.23,0001.27,0000.79,0000.15,0000.23,0000.13,0000.92,0000.42,18.7,25.0,05.6,03.8,0667.1,31.0
2021-08-08T08:41:00Z,00000200,00000000,0003.65,0001.99,0001.12,0000.50,0000.26,-000.06,0000.83,0000.44,0000.47,18.7,25.0,05.7,03.9,0667.2,31.0
2021-08-08T08:42:00Z,00000200,00000000,0002.52,0001.87,0001.25,0000.66,0000.16,0000.17,0000.62,0000.41,0000.96,18.6,25.0,05.8,03.9,0667.1,31.0
2021-08-08T08:43:00Z,00000200,00000000,0002.61,0002.18,0001.10,0000.43,0000.10,0000.20,0000.49,0000.61,0000.22,18.6,25.0,05.8,04.0,0667.1,31.0
2021-08-08T08:44:00Z,00000200,00000000,0002.18,0001.87,0001.15,0000.56,0000.23,0000.11,0000.58,0000.40,0000.32,18.6,25.0,05.8,03.9,0667.1,31.1
2021-08-08T08:45:00Z,00000200,00000000,0003.87,0001.87,0001.42,0000.52,0000.00,0000.29,0001.05,0000.58,0000.64,18.6,25.0,05.9,04.0,0667.1,31.0
2021-08-08T08:46:00Z,00000200,00000000,0003.23,0001.90,0001.25,0001.08,0000.32,0000.28,0000.22,0000.87,0000.68,18.6,25.0,06.0,04.1,0667.1,31.0
2021-08-08T08:47:00Z,00000200,00000000,0003.94,0001.64,0001.24,0000.57,0000.09,0000.14,0000.59,0000.39,0000.35,18.6,25.0,06.0,04.1,0667.1,31.0
2021-08-08T08:48:00Z,00000200,00000000,0002.96,0001.69,0001.15,0001.24,0000.47,0000.02,0000.49,0000.36,0000.33,18.6,25.0,06.0,04.1,0667.1,31.0
2021-08-08T08:49:00Z,00000200,00000000,0002.20,0002.23,0000.95,0000.34,0000.21,0000.21,0000.49,0000.59,0000.62,18.6,24.9,05.9,04.0,0667.1,31.0
2021-08-08T08:50:00Z,00000200,00000000,0003.76,0001.86,0001.34,0001.20,-000.08,0000.19,0000.45,0000.31,0000.16,18.6,25.0,06.0,04.0,0667.1,31.0
2021-08-08T08:51:00Z,00000200,00000000,0003.08,0002.04,0000.98,0000.76,0000.29,0000.25,0000.27,0000.67,0000.13,18.6,25.0,06.0,04.1,0667.1,31.0
2021-08-08T08:52:00Z,00000200,00000000,0003.08,0002.17,0001.14,0000.71,0000.48,0000.02,0000.57,0000.66,0000.55,18.6,25.0,06.0,04.0,0667.1,31.0
2021-08-08T08:53:00Z,00000200,00000000,0003.05,0001.96,0001.22,0000.35,0000.30,0000.16,0000.69,-000.42,0000.26,18.6,25.0,05.9,04.0,0667.1,31.0
2021-08-08T08:54:00Z,00000200,00000000,0003.51,0001.74,0001.31,0000.49,0000.58,0000.36,0000.36,0000.91,0000.50,18.7,25.0,05.9,04.0,0667.1,31.0
2021-08-08T08:55:00Z,00000200,00000000,0002.50,0002.17,0001.21,0000.95,0000.72,0000.00,0000.18,0000.49,0000.30,18.7,25.0,06.0,04.1,0667.1,31.1
2021-08-08T08:56:00Z,00000200,00000000,0002.32,0002.02,0001.07,0000.34,0000.14,0000.31,0000.79,0000.56,0000.77,18.7,25.0,05.8,04.0,0667.1,31.1
2021-08-08T08:57:00Z,00000200,40000000,,,,,,,-000.03,0000.05,-000.49,18.7,25.0,06.0,04.1,0667.1,31.0
2021-08-08T08:58:00Z,00000200,60000000,,,,,,,-000.22,-000.29,0000.00,18.5,25.2,05.6,03.7,0666.2,31.1
2021-08-08T08:59:00Z,00000200,20000000,,,,,,,-000.06,-000.04,0000.04,18.5,25.3,05.6,03.7,0666.2,31.1
